#timestamp,LO_Frequency,Hit,StdDev 
1709859615.6,286047001.1,N
1709859635.4,286047001.0,N
1709859655.2,286047000.2,N
1709859675.1,286047000.4,N
1709859676.0,286047000.4,N
1709859695.8,286047000.6,N
1709859715.7,286047000.5,N
1709859735.5,286047000.5,N
1709859755.3,286047000.9,N
1709859775.2,286047000.6,N
1709859795.0,286047000.1,N
1709859795.9,286047000.1,N
1709859815.8,286047002.4,N
1709859835.6,286046999.9,N
1709859855.5,286046999.9,N
1709859875.3,286047002.7,N
1709859895.1,286047000.7,N
1709859915.9,286046998.2,N
1709859935.7,286046998.1,N
1709859955.6,286047000.3,N
1709859975.4,286047000.0,N
1709859995.2,286047000.5,N
1709860015.1,286047002.7,N
1709860016.0,286047002.7,N
1709860035.8,286047002.1,N
1709860055.7,286047002.0,N
1709860075.5,286047002.0,N
1709860095.3,286047002.4,N
1709860115.2,286047002.5,N
1709860135.0,286046999.7,N
1709860135.9,286046999.7,N
1709860155.7,286047000.4,N
1709860175.6,286047002.7,N
1709860195.4,286047001.6,N
1709860215.3,286047002.1,N
1709860235.1,286047002.2,N
1709860255.8,286046999.8,N
1709860275.7,286047002.5,N
1709860295.5,286047001.7,N
1709860315.4,286047002.1,N
1709860335.2,286047002.5,N
1709860355.0,286047002.2,N
1709860355.9,286047002.2,N
1709860375.8,286047001.3,N
1709860395.6,286047001.8,N
1709860415.4,286047003.9,N
1709860435.3,286047002.1,N
1709860455.1,286047001.5,N
1709860475.9,286047001.4,N
1709860495.7,286047001.7,N
1709860515.1,286047002.5,N
1709860516.0,286047002.5,N
1709860535.8,286047004.4,Y
1709860555.7,286047002.8,P
1709860575.5,286046999.8,N
1709860595.3,286046999.7,N
1709860615.2,286047002.3,N
1709860635.0,286047002.0,N
1709860635.9,286047002.0,N
1709860655.7,286047001.6,N
1709860675.6,286047002.5,N
1709860695.4,286047002.3,N
1709860715.3,286047002.8,N
1709860735.1,286047001.6,N
1709860736.0,286047001.6,N
1709860755.8,286047003.3,Y
1709860775.7,286046999.7,P
1709860795.5,286047000.8,N
1709860815.4,286047001.1,N
1709860835.2,286047000.8,N
1709860855.0,286046998.9,N
1709860855.9,286046998.9,N
1709860875.8,286046998.5,N
1709860895.6,286046999.6,N
1709860915.5,286046996.9,N
1709860935.3,286046997.8,N
1709860955.2,286046997.8,N
1709860975.9,286046999.5,N
1709860995.7,286046999.6,N
1709861015.6,286046998.6,N
1709861035.4,286046998.7,N
1709861055.2,286046999.5,N
1709861075.1,286046997.0,N
1709861076.0,286046997.0,N
1709861095.8,286046996.8,N
1709861115.7,286046996.7,N
1709861135.5,286046996.7,N
1709861155.3,286046997.5,N
1709861175.2,286046996.1,N
1709861195.9,286046993.3,Y
1709861215.7,286046997.9,P
1709861235.6,286046997.2,P
1709861255.4,286046996.7,P
1709861275.3,286046998.0,N
1709861295.1,286046997.7,Y
1709861296.0,286046997.7,P
1709861315.8,286046998.5,P
1709861335.7,286046999.3,N
1709861355.5,286046997.5,Y
1709861375.4,286047001.1,P
1709861395.2,286046999.8,N
1709861415.0,286047002.7,N
1709861415.9,286047002.7,N
1709861435.8,286047000.2,N
1709861455.6,286047000.9,N
1709861475.4,286047000.3,N
1709861495.3,286047004.0,N
1709861515.1,286047003.3,N
1709861535.9,286047005.5,Y
1709861555.7,286047001.8,P
1709861575.5,286047004.2,P
1709861595.4,286047004.3,P
1709861615.2,286047004.2,Y
1709861635.0,286047002.3,P
1709861636.0,286047002.3,P
1709861655.8,286047002.2,P
1709861675.6,286047004.3,Y
1709861695.5,286047000.3,P
1709861715.3,286047000.4,N
1709861735.1,286046998.2,N
1709861755.9,286046998.1,N
1709861775.7,286047001.0,N
1709861795.6,286047000.1,N
1709861815.4,286047000.2,N
1709861835.2,286047000.9,N
1709861855.1,286047000.2,N
1709861856.0,286047000.2,N
1709861875.8,286047000.7,N
1709861895.7,286046998.1,N
1709861915.5,286047000.7,N
1709861935.3,286047000.9,N
1709861955.2,286046999.3,N
1709861975.0,286046999.5,N
1709861975.9,286046999.5,N
1709861995.8,286046999.4,N
1709862015.6,286046999.6,N
1709862035.4,286046996.7,Y
1709862055.3,286046998.3,P
1709862075.1,286046998.3,N
1709862095.9,286046999.6,N
1709862115.7,286046997.0,Y
1709862135.5,286047001.2,P
1709862155.4,286047000.0,N
1709862175.2,286046999.9,N
1709862195.0,286047000.5,N
1709862196.0,286047000.5,N
1709862215.8,286046999.9,N
1709862235.6,286047000.6,N
1709862255.5,286047002.8,Y
1709862275.3,286047001.0,P
1709862295.1,286046998.3,P
1709862315.9,286047001.1,N
1709862335.7,286046998.3,N
1709862355.0,286046999.4,N
1709862355.9,286046999.4,N
1709862375.8,286046999.5,N
1709862395.6,286046998.2,N
1709862415.4,286046998.4,N
1709862435.3,286046998.7,N
1709862455.1,286046999.2,N
1709862475.9,286046999.3,N
1709862495.7,286046999.5,N
1709862515.5,286046999.2,N
1709862535.4,286046999.0,N
1709862555.2,286046998.7,N
1709862575.0,286046998.2,N
1709862576.0,286046998.2,N
1709862595.8,286046998.3,N
1709862615.6,286046999.2,N
1709862635.5,286046998.6,N
1709862655.3,286046999.4,N
1709862675.1,286047001.1,N
1709862695.9,286046998.1,N
1709862715.7,286046996.5,Y
1709862735.6,286046998.8,P
1709862755.4,286046999.1,P
1709862775.2,286046998.7,P
1709862795.1,286046999.1,Y
1709862796.0,286046999.1,P
1709862815.8,286046998.2,P
1709862835.6,286047000.6,N
1709862855.5,286047000.5,N
1709862875.3,286047002.3,N
1709862895.2,286047002.2,N
1709862915.9,286047002.8,N
1709862935.7,286047004.0,N
1709862955.6,286047004.0,N
1709862975.4,286047001.7,N
1709862995.2,286047001.5,N
1709863015.1,286047001.8,N
1709863016.0,286047001.8,N
1709863035.8,286047001.4,N
1709863055.7,286047001.5,N
1709863075.5,286047001.5,N
1709863095.3,286047004.1,N
1709863115.2,286047002.4,N
1709863135.0,286047002.2,N
1709863135.9,286047002.2,N
1709863155.8,286047002.5,N
1709863175.6,286047000.0,N
1709863195.4,286047002.3,N
